AF5AA Weather Reports


Display with metric or nautical units.
time (UTC)temp
F
wind
direction
speed
MPH
gust
MPH
rain 1hr
in
rain 24hr
in
rain mn
in
humidity
%
barometer
mb
20260503021703 58 110 0.0 0.0 0.00 0.02 0.02 84 1019.2
20260503021159 58 110 0.0 0.0 0.00 0.02 0.02 84 1019.4
20260503020657 59 110 0.0 0.0 0.00 0.02 0.02 83 1019.1
20260503020154 59 110 0.0 0.0 0.00 0.02 0.02 81 1019.0
20260503015651 60 110 0.0 0.0 0.00 0.02 0.02 79 1019.1
20260503015148 60 110 0.0 0.0 0.00 0.02 0.02 77 1018.8
20260503014643 60 110 0.0 0.0 0.00 0.02 0.02 74 1018.9
20260503014142 60 110 0.0 0.0 0.00 0.02 0.02 73 1018.8
20260503013638 61 110 0.0 0.0 0.00 0.02 0.02 72 1018.9
20260503013137 61 110 0.0 0.0 0.00 0.02 0.02 71 1018.8
20260503012633 62 110 0.0 0.0 0.05 0.02 0.02 71 1018.8
20260503012130 62 110 0.0 0.0 0.05 0.02 0.02 73 1018.7
20260503011627 63 110 0.0 0.0 0.00 0.01 0.01 74 1018.5
20260503011124 63 110 0.0 0.0 0.00 0.01 0.01 68 1018.6
20260503010620 64 110 0.0 0.0 0.00 0.01 0.01 69 1018.5
20260503010118 64 110 0.0 0.0 0.00 0.01 0.01 74 1018.4
20260503005614 65 110 0.0 0.0 0.00 0.01 0.01 72 1018.5
20260503005112 65 110 0.0 0.0 0.00 0.01 0.01 69 1018.3
20260503004608 65 110 0.0 0.0 0.00 0.01 0.01 68 1018.3
20260503004107 66 110 0.0 0.0 0.00 0.01 0.01 71 1018.0
20260503003603 66 110 0.0 0.0 0.00 0.01 0.01 70 1018.1
20260503003100 67 110 0.0 0.0 0.00 0.01 0.01 67 1018.2
20260503002556 67 110 0.0 0.0 0.00 0.01 0.01 68 1018.1
20260503002054 68 110 0.0 0.0 0.00 0.01 0.01 69 1018.2
20260503001550 68 114 0.0 0.0 0.00 0.01 0.01 68 1018.2
20260503001047 69 114 0.0 0.0 0.00 0.01 0.01 63 1018.0
20260503000544 69 114 0.0 0.0 0.00 0.01 0.01 60 1018.1
20260503000041 69 109 0.0 0.0 0.00 0.01 0.01 58 1018.0
20260502235538 70 96 0.0 0.0 0.00 0.01 0.01 52 1018.0
20260502235036 70 98 0.0 0.0 0.00 0.01 0.01 55 1018.2
20260502234532 71 102 0.0 0.0 0.00 0.01 0.01 50 1018.0
20260502234030 71 100 0.0 0.0 0.00 0.01 0.01 50 1018.1
20260502233529 72 117 0.0 0.0 0.00 0.01 0.01 46 1018.0
20260502233027 72 95 0.0 0.0 0.00 0.01 0.01 49 1018.0
20260502232523 72 134 1.0 1.0 0.00 0.01 0.01 41 1017.9
20260502232020 72 108 0.0 0.0 0.00 0.01 0.01 45 1018.1
20260502231517 72 69 0.0 0.0 0.00 0.01 0.01 51 1018.1
20260502231015 72 97 1.0 1.0 0.00 0.01 0.01 51 1017.9
20260502230513 72 150 0.0 0.0 0.00 0.01 0.01 48 1017.9
20260502230011 72 90 0.0 0.0 0.00 0.01 0.01 43 1017.8
20260502225506 72 113 1.0 1.0 0.00 0.01 0.01 47 1017.9
20260502225003 72 104 0.0 0.0 0.00 0.01 0.01 57 1018.0
20260502224459 72 94 0.0 0.0 0.00 0.01 0.01 46 1018.1
20260502223956 73 106 0.0 0.0 0.00 0.01 0.01 46 1018.0
20260502223454 73 126 1.0 1.0 0.00 0.01 0.01 44 1018.2
20260502222952 73 96 0.0 1.0 0.00 0.01 0.01 47 1018.0
20260502222449 73 117 1.0 2.0 0.00 0.01 0.01 46 1018.0
20260502221945 73 124 0.0 0.0 0.00 0.01 0.01 43 1017.9
20260502221441 73 121 0.0 0.0 0.00 0.01 0.01 41 1018.3
20260502220939 74 109 0.0 0.0 0.00 0.01 0.01 44 1018.0
20260502220434 74 96 0.0 0.0 0.00 0.01 0.01 39 1018.2
20260502215931 74 119 0.0 1.0 0.00 0.01 0.01 41 1018.2
20260502215429 75 42 0.0 1.0 0.00 0.01 0.01 43 1018.3
20260502214925 75 112 1.0 2.0 0.00 0.01 0.01 37 1018.2
20260502214422 76 134 0.0 0.0 0.00 0.01 0.01 39 1018.3
20260502213919 75 75 0.0 1.0 0.00 0.01 0.01 40 1018.2
20260502213416 75 122 0.0 1.0 0.00 0.01 0.01 39 1018.4
20260502212915 75 114 0.0 0.0 0.00 0.01 0.01 39 1018.3
20260502212414 74 72 0.0 0.0 0.00 0.01 0.01 41 1018.4
20260502211910 75 53 0.0 1.0 0.00 0.01 0.01 45 1018.4
20260502211405 74 125 0.0 1.0 0.00 0.01 0.01 38 1018.4
20260502210903 73 170 0.0 1.0 0.00 0.01 0.01 43 1018.4
20260502210400 73 69 1.0 2.0 0.00 0.01 0.01 40 1018.3
20260502205857 75 166 1.0 1.0 0.00 0.01 0.01 41 1018.6
20260502205353 75 102 0.0 1.0 0.00 0.01 0.01 42 1018.3
20260502204850 75 147 1.0 1.0 0.00 0.01 0.01 42 1018.5
20260502204348 74 141 0.0 1.0 0.00 0.01 0.01 41 1018.8
20260502203845 75 43 1.0 1.0 0.00 0.01 0.01 44 1018.6
20260502203343 75 127 0.0 1.0 0.00 0.01 0.01 44 1018.9
20260502202838 73 120 0.0 0.0 0.00 0.01 0.01 45 1018.9
20260502202336 72 101 0.0 0.0 0.00 0.01 0.01 49 1019.2
20260502201833 74 103 0.0 0.0 0.00 0.01 0.01 44 1019.1
20260502201329 75 115 0.0 0.0 0.00 0.01 0.01 44 1019.1
20260502200826 75 98 0.0 0.0 0.00 0.01 0.01 45 1019.2
20260502200321 75 117 0.0 0.0 0.00 0.01 0.01 40 1019.1
20260502195820 75 72 0.0 1.0 0.00 0.01 0.01 40 1019.1
20260502195316 75 39 0.0 0.0 0.00 0.01 0.01 47 1019.3
20260502194813 74 90 0.0 1.0 0.00 0.01 0.01 42 1019.0
20260502194310 73 139 0.0 1.0 0.00 0.01 0.01 44 1019.2
20260502193805 73 151 0.0 1.0 0.00 0.01 0.01 43 1019.5
20260502193303 73 175 1.0 2.0 0.00 0.01 0.01 45 1019.6
20260502192758 73 87 0.0 0.0 0.00 0.01 0.01 44 1019.3
20260502192256 73 96 0.0 0.0 0.00 0.01 0.01 47 1019.5
20260502191752 73 115 0.0 0.0 0.00 0.01 0.01 51 1019.7
20260502191250 73 126 2.0 3.0 0.00 0.01 0.01 44 1019.7
20260502190747 73 103 0.0 0.0 0.00 0.01 0.01 45 1019.8
20260502190245 73 148 0.0 1.0 0.00 0.01 0.01 44 1020.0
20260502185745 73 70 0.0 0.0 0.00 0.01 0.01 44 1019.7
20260502185241 73 133 0.0 0.0 0.00 0.01 0.01 49 1019.9
20260502184738 72 105 0.0 0.0 0.00 0.01 0.01 49 1019.9
20260502184234 72 153 0.0 0.0 0.00 0.01 0.01 53 1020.0
20260502183731 72 81 0.0 0.0 0.00 0.01 0.01 48 1019.8
20260502183226 72 105 0.0 1.0 0.00 0.01 0.01 48 1019.9
20260502182722 72 82 1.0 1.0 0.00 0.01 0.01 50 1020.1
20260502182217 71 113 0.0 0.0 0.00 0.01 0.01 52 1020.2
20260502181715 71 126 0.0 0.0 0.00 0.01 0.01 47 1020.4
20260502181214 71 88 0.0 1.0 0.00 0.01 0.01 50 1020.2
20260502180711 71 121 0.0 0.0 0.00 0.01 0.01 52 1020.2
20260502180208 71 93 0.0 0.0 0.00 0.01 0.01 48 1020.4
20260502170132 69 104 0.0 1.0 0.00 0.01 0.01 59 1020.8
20260502164119 69 222 0.0 1.0 0.00 0.01 0.01 61 1020.9
20260502163615 68 112 0.0 0.0 0.00 0.01 0.01 61 1020.9
20260502163111 68 115 0.0 1.0 0.00 0.01 0.01 61 1021.0
20260502162608 68 73 0.0 0.0 0.00 0.01 0.01 71 1020.9
20260502162106 68 258 2.0 2.0 0.00 0.01 0.01 63 1020.9
20260502161603 67 200 0.0 1.0 0.00 0.01 0.01 67 1020.7
20260502161100 67 102 0.0 0.0 0.00 0.01 0.01 67 1021.0
20260502160558 67 69 1.0 1.0 0.00 0.01 0.01 66 1020.8
20260502152005 63 179 1.0 1.0 0.00 0.01 0.01 78 1020.7
20260502151501 63 125 0.0 0.0 0.00 0.01 0.01 81 1020.7
20260502150959 62 124 0.0 0.0 0.00 0.01 0.01 81 1020.7
20260502150456 62 34 1.0 1.0 0.00 0.01 0.01 89 1020.7
20260502130341 51 106 0.0 0.0 0.00 0.00 0.00 99 1019.8
20260502123324 50 106 0.0 0.0 0.00 0.00 0.00 99 1019.6
20260502122821 49 111 0.0 0.0 0.00 0.00 0.00 99 1019.5
20260502122316 49 111 0.0 0.0 0.00 0.00 0.00 99 1019.4
20260502121815 49 102 0.0 0.0 0.00 0.00 0.00 99 1019.0
20260502121312 49 102 0.0 0.0 0.00 0.00 0.00 99 1019.2
20260502120809 49 102 0.0 0.0 0.00 0.00 0.00 99 1019.0
20260502120305 49 102 0.0 0.0 0.00 0.00 0.00 99 1019.0
20260502115803 49 102 0.0 0.0 0.00 0.00 0.00 99 1019.0
20260502115300 49 102 0.0 0.0 0.00 0.00 0.00 99 1018.9
20260502114756 49 102 0.0 0.0 0.00 0.00 0.00 99 1018.8
20260502114253 49 101 0.0 0.0 0.00 0.00 0.00 99 1018.6
20260502113750 49 104 0.0 0.0 0.00 0.00 0.00 99 1018.7
20260502113248 49 110 0.0 0.0 0.00 0.00 0.00 99 1018.4
20260502112746 49 110 0.0 0.0 0.00 0.00 0.00 99 1018.3
20260502112243 50 110 0.0 0.0 0.00 0.00 0.00 99 1018.3
20260502111740 50 110 0.0 0.0 0.00 0.00 0.00 99 1018.1
20260502111238 50 111 0.0 0.0 0.00 0.00 0.00 99 1018.2
20260502110735 50 104 0.0 0.0 0.00 0.00 0.00 99 1018.3
20260502110233 50 107 0.0 0.0 0.00 0.00 0.00 99 1018.3
20260502105731 50 106 0.0 0.0 0.00 0.00 0.00 99 1018.0
20260502105226 50 107 0.0 0.0 0.00 0.00 0.00 99 1018.1
20260502104725 50 107 0.0 0.0 0.00 0.00 0.00 99 1018.1
20260502104222 50 107 0.0 0.0 0.00 0.00 0.00 99 1018.1
20260502103719 51 107 0.0 0.0 0.00 0.00 0.00 99 1017.9
20260502103217 51 108 0.0 0.0 0.00 0.00 0.00 99 1017.9
20260502102713 51 108 0.0 0.0 0.00 0.00 0.00 99 1017.8
20260502102210 51 108 0.0 0.0 0.00 0.00 0.00 99 1017.9
20260502101708 51 108 0.0 0.0 0.00 0.00 0.00 99 1018.0
20260502101207 51 107 0.0 0.0 0.00 0.00 0.00 99 1017.8
20260502100704 51 111 0.0 0.0 0.00 0.00 0.00 99 1018.0
20260502100202 51 112 0.0 0.0 0.00 0.00 0.00 99 1017.8
20260502091136 52 110 0.0 0.0 0.00 0.00 0.00 99 1017.4
20260502090633 52 108 0.0 0.0 0.00 0.00 0.00 99 1017.2
20260502090131 52 110 0.0 0.0 0.00 0.00 0.00 99 1017.5
20260502071528 54 110 0.0 0.0 0.00 0.00 0.00 99 1017.5
20260502071026 54 110 0.0 0.0 0.00 0.00 0.00 99 1017.5
20260502070524 54 110 0.0 0.0 0.00 0.00 0.00 99 1017.5
20260502070022 54 108 0.0 0.0 0.00 0.00 0.00 99 1017.3
20260502065520 54 110 0.0 0.0 0.00 0.00 0.00 99 1017.5
20260502065017 54 110 0.0 0.0 0.00 0.00 0.00 99 1017.5
20260502064516 54 110 0.0 0.0 0.00 0.00 0.00 99 1017.6
20260502064012 54 110 0.0 0.0 0.00 0.00 0.00 99 1017.6
20260502063510 54 110 0.0 0.0 0.00 0.00 0.00 99 1017.6
20260502063008 55 110 0.0 0.0 0.00 0.00 0.00 99 1017.5
20260502062504 55 111 0.0 0.0 0.00 0.00 0.00 99 1017.6
20260502062003 55 110 0.0 0.0 0.00 0.00 0.00 99 1017.5
20260502061501 55 110 0.0 0.0 0.00 0.00 0.00 99 1017.5
20260502060956 55 102 0.0 0.0 0.00 0.00 0.00 99 1017.5
20260502060452 55 106 0.0 0.0 0.00 0.00 0.00 99 1017.2
20260502055949 55 94 0.0 0.0 0.00 0.00 0.00 99 1017.3
20260502055447 55 107 0.0 0.0 0.00 0.00 0.00 99 1017.3
20260502054941 55 109 0.0 0.0 0.00 0.00 0.00 99 1017.3
20260502054438 54 107 0.0 0.0 0.00 0.00 0.00 99 1017.2
20260502053935 54 107 0.0 0.0 0.00 0.00 0.00 99 1017.3
20260502053432 54 107 0.0 0.0 0.00 0.00 0.00 99 1017.4
20260502052930 54 103 0.0 0.0 0.00 0.00 0.00 99 1017.3
20260502052428 54 103 0.0 0.0 0.00 0.00 0.00 99 1017.2
20260502051926 54 103 0.0 0.0 0.00 0.00 0.00 99 1017.4
20260502051424 54 102 0.0 0.0 0.00 0.00 0.00 99 1017.5
20260502050921 54 105 0.0 0.0 0.00 0.00 0.00 99 1017.2
20260502050417 54 96 0.0 0.0 0.00 0.00 0.00 99 1017.3
20260502045915 54 95 0.0 0.0 0.00 0.03 0.03 99 1017.3
20260502045411 54 99 0.0 0.0 0.00 0.03 0.03 99 1017.3
20260502044909 54 107 0.0 0.0 0.00 0.03 0.03 99 1017.3
20260502044404 54 106 0.0 0.0 0.05 0.03 0.03 99 1017.4
20260502043901 54 109 0.0 0.0 0.05 0.03 0.03 99 1017.1
20260502043359 55 104 0.0 0.0 0.00 0.02 0.02 99 1017.2
20260502042858 55 112 0.0 0.0 0.00 0.02 0.02 99 1017.3
20260502042355 54 114 0.0 0.0 0.00 0.02 0.02 99 1017.2
20260502041853 54 107 0.0 0.0 0.00 0.02 0.02 99 1017.0
20260502041350 54 99 0.0 0.0 0.00 0.02 0.02 99 1017.2
20260502040847 55 93 0.0 0.0 0.00 0.02 0.02 99 1017.1
20260502040344 55 117 0.0 0.0 0.00 0.02 0.02 99 1017.0
20260502035840 55 112 0.0 0.0 0.00 0.02 0.02 99 1017.0
20260502035337 55 109 0.0 0.0 0.00 0.02 0.02 99 1017.0
20260502034834 55 109 0.0 0.0 0.00 0.02 0.02 99 1017.3
20260502034333 55 97 0.0 0.0 0.00 0.02 0.02 99 1017.4
20260502033831 54 97 0.0 0.0 0.00 0.02 0.02 99 1017.1
20260502033328 54 117 0.0 0.0 0.00 0.02 0.02 99 1017.2
20260502032825 54 96 0.0 0.0 0.00 0.02 0.02 99 1016.9
20260502032320 54 103 0.0 0.0 0.00 0.02 0.02 99 1016.8
20260502031818 55 103 0.0 0.0 0.00 0.02 0.02 99 1016.8
20260502031316 55 111 0.0 0.0 0.00 0.02 0.02 99 1016.9
20260502030815 54 111 0.0 0.0 0.00 0.02 0.02 99 1016.8
20260502030312 55 106 0.0 0.0 0.00 0.02 0.02 99 1016.7
20260502025809 55 107 0.0 0.0 0.00 0.02 0.02 99 1016.6
20260502025308 55 115 0.0 0.0 0.00 0.02 0.02 99 1016.7
20260502024805 55 115 0.0 0.0 0.00 0.02 0.02 99 1016.5
20260502024302 55 115 0.0 0.0 0.00 0.02 0.02 99 1016.4
20260502023800 55 106 0.0 0.0 0.00 0.02 0.02 99 1016.7
20260502023258 55 105 0.0 0.0 0.00 0.02 0.02 99 1016.3
20260502022755 55 105 0.0 0.0 0.00 0.02 0.02 99 1016.2
20260502022251 55 105 0.0 0.0 0.00 0.02 0.02 99 1016.2